Vorticity
9 9 10 10 10 10 11 11 11 11 11 11 11 11 11 11 11 11 11 11 11 12 12 13 13 14 15 15 16 16 17 18 21 23 25 26 25 22 20 17 15 13 10 8 6 5 6 8 10 12 12 12 11 11 11 12 14 17 19 21 22 24 27 30 32 33 33 33 33
9 9 9 10 10 10 11 11 11 12 12 12 12 12 12 12 12 12 11 11 11 12 12 12 12 13 13 14 15 16 17 17 19 21 23 25 25 24 22 19 17 14 12 9 7 6 6 7 9 11 12 12 11 11 11 12 14 16 18 20 21 22 23 26 28 30 31 31 32
8 9 9 10 11 11 12 12 13 13 13 14 14 14 14 14 14 13 13 13 13 12 12 12 12 12 12 13 14 15 16 17 18 19 21 23 24 25 24 22 19 17 14 11 9 7 6 7 9 10 11 12 12 11 11 12 13 15 17 19 20 21 21 22 24 26 28 30 30
8 9 10 10 11 12 13 14 15 15 16 16 16 16 16 16 16 16 15 15 14 14 13 13 13 12 12 12 13 14 15 16 17 18 20 21 23 24 24 23 21 19 16 13 10 8 7 7 8 10 11 12 12 11 11 11 12 14 16 18 19 19 20 20 21 23 25 27 28
8 9 10 11 13 14 15 16 17 18 18 18 18 18 18 18 17 17 17 17 16 16 16 15 15 14 13 13 13 13 14 15 16 17 19 20 22 23 24 24 23 21 19 16 13 10 8 7 8 9 11 11 12 11 11 11 12 13 15 16 17 18 19 19 19 20 22 24 26
9 10 11 13 15 16 18 19 19 19 19 18 18 18 17 17 17 17 18 18 17 17 17 17 16 16 15 14 14 13 14 14 15 16 17 19 20 22 23 23 23 23 21 18 15 12 9 8 8 9 10 11 12 11 11 11 12 12 13 15 16 17 18 18 18 18 19 21 23
10 11 13 15 17 18 19 19 19 18 17 16 16 16 16 16 16 17 17 17 18 18 18 18 17 17 17 16 15 14 14 14 14 15 16 18 19 20 21 22 23 23 23 21 17 14 11 8 8 9 10 11 12 11 11 11 11 12 12 13 14 15 16 17 17 17 18 19 20
11 12 14 16 18 19 19 19 18 16 15 14 14 14 14 15 15 16 17 18 18 19 19 18 18 18 18 17 17 16 15 15 15 15 15 17 18 19 20 20 21 23 23 23 20 16 13 9 8 8 10 11 12 12 11 11 11 11 12 12 13 14 15 16 17 17 17 18 18
12 14 16 18 19 19 19 18 16 14 13 12 12 12 13 14 15 16 17 18 19 19 20 19 19 19 19 19 18 18 17 16 16 15 15 16 17 18 19 19 20 22 23 24 22 19 15 11 9 8 9 10 11 12 11 11 11 11 11 11 12 13 14 15 16 16 17 17 18
14 16 17 19 19 19 18 16 14 12 11 11 11 12 13 14 15 16 17 19 20 21 21 21 21 20 20 20 19 19 18 18 17 16 15 15 16 17 18 18 19 20 22 24 23 21 17 13 11 9 9 10 11 12 12 11 11 11 11 11 11 12 12 13 15 16 16 17 17
15 17 18 19 19 18 16 14 13 11 11 10 11 12 13 14 15 16 17 18 20 22 23 23 23 22 22 21 20 20 19 19 18 17 16 16 16 16 17 17 18 19 21 24 24 23 20 16 12 10 10 10 11 12 12 11 11 11 11 10 11 11 12 12 14 15 16 17 17
16 18 19 19 18 17 15 13 12 11 11 11 12 12 13 14 14 14 15 17 19 21 23 24 25 24 24 23 22 21 21 20 19 18 17 17 16 16 16 17 17 18 20 22 24 24 22 18 14 12 10 10 11 12 12 12 11 11 11 10 10 11 11 12 13 14 15 16 17
17 18 18 18 17 16 14 13 12 11 11 12 13 13 13 13 13 13 13 15 17 19 22 24 25 26 25 25 24 23 22 21 20 20 19 18 17 16 16 16 17 18 19 20 23 24 23 21 16 13 11 11 12 12 12 12 12 11 11 10 10 11 11 12 13 14 15 16 17
18 18 18 17 16 15 13 12 12 12 12 13 13 14 14 13 12 12 12 12 14 16 19 22 25 26 27 26 25 24 23 22 22 21 20 19 18 17 16 16 17 17 18 19 21 23 23 22 18 15 13 12 12 12 12 12 12 12 11 11 11 11 11 12 12 13 14 15 16
18 18 17 16 15 14 13 12 12 12 13 14 14 14 13 13 12 11 11 10 11 13 15 19 22 25 27 27 27 26 25 24 23 22 21 20 19 18 17 17 17 18 18 18 20 21 22 23 20 17 14 13 12 12 12 12 12 12 11 11 11 11 11 12 13 13 14 14 15
18 17 16 15 14 13 13 12 13 13 14 14 14 14 13 12 12 11 10 10 10 10 12 15 19 22 25 27 27 27 26 25 24 23 22 21 20 19 18 18 18 18 18 18 19 20 21 22 20 18 16 14 13 12 12 12 12 12 11 11 11 11 11 12 12 13 14 14 14
17 16 15 14 13 13 13 13 13 14 14 14 14 13 13 12 12 11 11 10 10 10 10 12 15 19 22 26 27 27 27 26 25 24 23 22 21 20 19 18 18 18 18 19 19 19 19 20 21 19 17 15 14 13 12 12 11 11 11 11 11 11 11 11 12 13 14 14 14
17 16 14 13 13 13 13 13 14 14 14 13 13 13 12 12 12 12 11 11 10 10 10 10 12 15 19 23 25 27 27 27 26 25 23 23 22 21 20 19 19 19 19 19 19 18 18 19 20 20 19 17 15 14 13 12 11 11 11 11 11 10 10 11 12 13 13 13 13
16 15 14 13 13 13 13 13 13 13 13 13 13 13 13 12 12 12 12 12 11 11 10 10 11 13 15 19 23 25 27 27 27 25 24 23 22 21 21 20 20 20 20 20 19 19 18 18 19 19 19 18 17 16 14 12 11 11 11 11 11 10 10 10 11 12 13 13 13
15 14 13 12 12 13 13 13 13 13 13 13 13 13 13 13 13 13 13 12 12 12 11 11 11 11 13 16 19 23 26 27 27 26 25 24 23 22 21 21 21 20 20 20 20 19 18 18 18 19 19 19 19 18 16 14 12 11 10 10 10 10 10 10 10 11 12 12 12
14 13 12 12 12 12 13 13 13 13 13 13 13 13 13 13 13 13 13 13 12 12 12 11 11 11 12 13 16 20 23 26 27 27 26 24 23 22 22 21 21 21 21 21 20 20 19 18 17 18 19 20 20 19 17 15 13 12 11 10 10 10 10 9 10 10 11 12 12
13 12 12 12 12 12 12 12 12 13 13 13 13 13 13 13 13 13 13 13 12 12 12 12 11 11 11 12 14 17 20 24 26 27 26 25 23 23 22 22 21 21 21 21 21 20 19 18 17 17 18 20 20 19 18 16 15 13 12 11 10 10 10 9 9 9 10 11 11
12 12 11 12 12 12 12 12 12 12 13 13 13 13 13 13 12 12 12 12 12 12 12 12 12 11 11 11 13 15 18 21 24 26 26 25 24 23 22 22 22 21 21 21 21 20 19 18 18 17 18 20 20 20 19 17 16 14 13 12 11 11 10 9 9 9 9 10 10
12 11 11 11 12 12 12 12 12 13 13 13 13 13 12 12 12 12 12 12 12 12 12 12 12 12 11 12 12 14 16 19 22 24 25 25 24 23 22 22 21 21 21 21 20 20 19 19 18 18 18 19 20 20 19 18 17 15 14 13 12 12 11 10 9 8 8 9 9
11 11 11 11 11 12 12 12 12 13 13 13 13 12 12 12 12 12 12 12 12 12 12 12 12 12 12 12 12 13 14 17 20 22 24 25 24 23 22 21 21 21 21 20 20 20 20 19 18 18 18 19 19 19 19 18 17 16 15 14 13 13 12 11 9 9 8 8 9
11 11 11 11 11 12 12 13 13 13 13 13 13 13 12 12 12 12 12 12 12 12 12 12 12 12 12 12 13 13 14 15 18 21 23 24 24 23 22 21 21 21 20 20 20 20 19 18 18 18 18 20 19 19 19 19 18 17 16 15 14 13 13 12 11 9 8 8 8
11 11 11 11 11 12 13 13 13 14 14 13 13 13 13 12 12 12 12 13 12 12 12 12 12 12 13 13 13 14 14 15 17 19 21 23 23 22 22 21 20 20 20 20 20 20 19 17 18 19 20 20 20 19 19 19 18 18 16 15 14 14 13 13 12 11 9 8 8
11 11 11 11 12 12 13 13 14 14 14 14 13 13 13 13 13 13 13 13 13 12 12 13 13 13 13 14 14 15 15 16 17 18 20 22 22 22 21 20 20 19 19 19 19 19 18 16 17 19 20 21 20 19 19 19 19 18 17 16 14 14 13 13 13 12 11 10 9
11 11 11 12 12 13 13 14 15 15 14 14 14 13 13 13 13 13 13 13 12 12 12 12 13 13 14 15 16 16 16 17 17 18 19 21 21 21 21 20 19 19 19 19 19 18 17 17 18 19 20 20 19 19 18 19 19 18 17 16 14 13 13 14 14 13 12 11 10
11 11 11 12 12 13 14 15 15 15 14 14 13 13 13 13 13 13 13 12 12 12 12 12 13 14 16 17 18 18 18 18 18 18 19 20 20 20 20 19 19 19 18 18 18 18 17 18 19 20 20 19 19 18 18 19 19 19 18 17 15 13 13 14 15 15 14 13 11
11 11 12 12 13 14 14 14 14 14 14 13 13 13 13 13 12 12 12 11 11 11 11 12 14 16 18 19 21 21 21 20 19 19 19 19 19 19 18 18 19 19 18 17 17 17 18 20 20 20 19 19 18 18 18 19 19 19 19 17 15 14 14 14 15 16 16 15 13
11 11 12 12 13 14 14 14 14 13 13 12 12 12 11 11 11 11 10 10 9 9 10 12 15 18 21 23 25 25 24 23 21 20 19 19 19 18 18 17 18 18 18 16 17 17 18 20 22 21 19 18 18 18 18 19 19 20 19 18 15 14 14 15 16 16 16 15 14
11 12 12 13 13 14 14 14 13 12 11 11 10 10 10 10 9 9 9 8 8 9 10 13 16 21 25 28 29 29 28 25 23 21 20 19 19 18 17 16 17 17 17 16 16 16 16 15 24 24 21 18 18 18 19 19 19 20 19 18 16 14 14 15 16 16 16 16 15
12 12 12 13 13 13 13 13 12 10 9 9 8 8 8 8 8 8 8 8 9 9 11 14 19 25 29 33 34 33 31 28 25 22 21 20 19 18 17 16 16 16 17 16 16 16 16 14 22 23 21 20 19 19 19 19 20 20 19 18 16 14 14 15 15 16 16 16 16
12 12 12 13 13 13 12 11 10 9 8 8 7 7 8 8 8 8 8 8 9 11 13 18 24 30 35 39 39 37 33 30 26 24 21 20 19 18 17 15 15 15 16 16 15 16 17 17 19 20 20 21 22 22 21 21 20 20 19 18 15 14 13 14 15 15 16 17 17
12 12 12 13 13 12 12 10 9 8 8 7 7 7 8 8 9 9 9 9 10 13 17 23 31 37 42 44 42 39 35 31 27 24 22 21 19 18 17 15 14 14 15 15 15 16 17 19 19 18 19 20 22 23 23 22 21 21 19 18 15 14 13 13 14 15 15 16 17
12 12 12 12 12 12 11 10 9 8 8 8 8 8 9 9 9 10 10 11 12 16 22 29 38 44 47 48 45 41 37 32 28 25 23 21 20 19 17 15 14 14 14 14 15 15 16 19 19 19 19 19 20 22 23 24 23 22 20 18 16 13 12 13 13 14 14 15 16
12 12 12 12 12 11 11 10 9 9 9 9 9 9 10 10 10 11 11 12 15 20 27 36 44 49 51 50 47 42 37 33 29 26 23 21 20 19 17 15 14 13 13 14 14 15 16 18 19 18 18 18 19 21 23 24 24 23 21 19 16 14 12 12 13 13 13 13 14
12 12 12 12 12 11 11 10 10 10 10 10 10 10 11 11 11 12 12 13 18 24 32 42 49 52 53 51 47 42 37 33 29 26 24 21 20 18 17 15 13 12 12 13 14 15 16 17 18 18 18 18 19 20 22 23 24 23 22 20 17 14 12 12 12 12 12 12 12
12 12 12 12 12 11 11 11 11 11 11 10 11 11 11 12 12 12 13 15 21 29 38 46 51 53 53 51 46 42 37 33 29 26 24 21 19 18 16 15 13 12 12 12 13 15 16 16 16 17 18 19 20 20 21 22 23 23 22 20 17 14 12 12 12 12 12 12 12
12 12 12 12 12 12 12 12 12 12 11 11 11 11 12 12 12 13 14 17 24 33 41 48 51 52 51 49 45 40 36 32 29 26 23 21 19 17 16 15 13 12 12 12 13 14 15 15 15 16 17 19 21 21 22 22 23 22 21 20 18 15 13 12 12 12 12 12 13
Height
5502 5499 5496 5493 5490 5488 5485 5482 5479 5476 5474 5471 5469 5466 5464 5462 5460 5457 5455 5453 5451 5450 5448 5446 5445 5444 5442 5441 5440 5439 5438 5437 5436 5435 5435 5434 5434 5434 5434 5434 5434 5434 5434 5435 5435 5435 5435 5435 5435 5435 5436 5436 5436 5436 5436 5437 5437 5438 5438 5439 5439 5440 5441 5443 5445 5447 5450 5453 5456
5500 5496 5493 5490 5487 5485 5482 5479 5476 5473 5470 5468 5465 5463 5460 5458 5455 5453 5451 5449 5447 5445 5444 5442 5441 5439 5438 5437 5435 5434 5433 5433 5432 5431 5431 5430 5430 5430 5429 5429 5429 5430 5430 5430 5430 5431 5431 5431 5431 5431 5432 5432 5432 5433 5433 5434 5434 5435 5435 5435 5436 5437 5438 5440 5441 5443 5446 5448 5451
5497 5494 5490 5487 5484 5481 5479 5475 5473 5470 5467 5464 5461 5459 5456 5454 5452 5449 5447 5445 5443 5441 5439 5438 5436 5435 5434 5432 5431 5430 5429 5428 5427 5427 5427 5426 5426 5425 5425 5425 5425 5425 5426 5426 5426 5426 5426 5427 5427 5427 5428 5428 5429 5429 5430 5430 5431 5431 5432 5432 5433 5434 5435 5436 5438 5439 5442 5444 5447
5494 5491 5488 5485 5481 5478 5475 5472 5469 5466 5463 5460 5458 5455 5452 5450 5448 5445 5443 5441 5439 5437 5435 5433 5432 5430 5429 5428 5427 5425 5425 5424 5423 5423 5422 5422 5422 5421 5421 5421 5421 5421 5421 5422 5422 5422 5422 5423 5423 5424 5424 5425 5425 5426 5426 5427 5428 5428 5429 5430 5430 5431 5432 5433 5434 5436 5438 5440 5443
5491 5488 5485 5481 5478 5475 5472 5469 5465 5463 5460 5457 5454 5451 5449 5446 5444 5441 5439 5437 5435 5433 5431 5429 5427 5426 5425 5424 5422 5421 5420 5419 5418 5418 5418 5418 5417 5417 5417 5417 5417 5417 5417 5417 5417 5418 5418 5419 5419 5420 5420 5421 5422 5422 5423 5424 5425 5425 5426 5427 5428 5428 5429 5430 5432 5433 5435 5437 5439
5489 5485 5482 5478 5475 5471 5468 5465 5462 5459 5456 5454 5451 5448 5445 5443 5440 5438 5435 5433 5431 5429 5427 5425 5423 5421 5420 5419 5418 5417 5416 5415 5414 5413 5413 5413 5413 5413 5413 5413 5413 5413 5413 5413 5413 5413 5414 5415 5415 5416 5416 5417 5418 5419 5420 5420 5421 5422 5423 5424 5425 5425 5427 5428 5429 5430 5432 5434 5436
5486 5482 5479 5475 5472 5468 5465 5462 5459 5456 5453 5450 5448 5445 5442 5440 5437 5435 5432 5429 5427 5425 5423 5421 5419 5417 5416 5415 5414 5412 5411 5410 5409 5409 5408 5408 5408 5409 5409 5409 5409 5408 5408 5408 5409 5409 5410 5410 5411 5412 5413 5414 5415 5415 5416 5417 5418 5419 5420 5421 5422 5423 5424 5425 5426 5427 5429 5431 5433
5483 5479 5476 5472 5469 5465 5462 5459 5456 5453 5450 5447 5445 5442 5439 5436 5434 5431 5429 5426 5423 5421 5419 5417 5415 5413 5412 5410 5409 5408 5407 5406 5405 5404 5404 5404 5404 5404 5404 5404 5404 5404 5404 5404 5405 5405 5406 5407 5407 5408 5409 5410 5411 5412 5413 5414 5415 5416 5417 5418 5419 5420 5421 5422 5424 5425 5426 5428 5430
5480 5476 5473 5469 5466 5462 5459 5456 5453 5450 5447 5445 5442 5439 5436 5434 5431 5428 5425 5423 5420 5417 5415 5413 5411 5409 5408 5406 5405 5404 5403 5402 5401 5400 5399 5399 5399 5399 5400 5400 5400 5400 5399 5400 5400 5401 5402 5403 5404 5405 5405 5407 5408 5408 5409 5410 5411 5413 5414 5415 5416 5417 5418 5420 5421 5422 5424 5425 5427
5477 5473 5470 5466 5463 5460 5456 5454 5450 5448 5445 5442 5439 5436 5434 5431 5428 5425 5422 5420 5417 5414 5412 5409 5407 5405 5404 5402 5401 5400 5399 5397 5396 5396 5395 5395 5395 5395 5395 5395 5395 5395 5395 5395 5396 5397 5398 5399 5400 5401 5402 5403 5404 5405 5406 5407 5408 5410 5411 5412 5413 5415 5415 5417 5418 5420 5421 5423 5425
5474 5470 5467 5463 5460 5457 5454 5451 5448 5445 5442 5439 5436 5434 5431 5428 5425 5422 5419 5416 5414 5411 5408 5406 5404 5402 5400 5398 5397 5395 5394 5393 5392 5392 5391 5390 5390 5390 5390 5391 5391 5391 5391 5391 5392 5393 5394 5395 5396 5398 5399 5400 5401 5402 5403 5404 5405 5407 5408 5409 5410 5412 5413 5414 5415 5417 5419 5420 5422
5471 5467 5464 5460 5457 5454 5451 5449 5445 5443 5440 5437 5434 5431 5428 5425 5422 5419 5416 5414 5411 5408 5405 5402 5400 5398 5396 5394 5393 5392 5390 5389 5388 5387 5387 5386 5386 5386 5386 5386 5386 5386 5386 5387 5387 5389 5390 5391 5393 5394 5395 5397 5397 5398 5400 5400 5402 5404 5405 5406 5407 5409 5410 5411 5413 5415 5416 5418 5420
5468 5465 5461 5458 5455 5452 5449 5446 5443 5440 5437 5434 5431 5428 5425 5422 5419 5416 5414 5411 5408 5405 5402 5400 5397 5395 5392 5390 5389 5388 5386 5385 5385 5384 5383 5382 5382 5382 5382 5382 5382 5382 5382 5383 5383 5384 5385 5387 5389 5390 5392 5393 5394 5395 5396 5397 5399 5400 5402 5403 5404 5406 5407 5409 5410 5412 5414 5415 5417
5465 5462 5458 5455 5452 5449 5446 5443 5440 5437 5435 5431 5428 5425 5422 5420 5416 5414 5411 5408 5405 5402 5400 5397 5394 5391 5389 5387 5385 5384 5383 5382 5381 5380 5379 5378 5378 5378 5378 5378 5378 5378 5378 5378 5379 5380 5381 5383 5385 5387 5388 5390 5391 5391 5392 5393 5395 5397 5399 5400 5401 5403 5404 5406 5407 5409 5411 5413 5415
5463 5459 5456 5453 5450 5446 5444 5441 5438 5435 5432 5429 5425 5423 5420 5417 5414 5411 5408 5405 5402 5400 5397 5394 5391 5389 5386 5384 5382 5380 5379 5378 5377 5376 5375 5375 5374 5374 5374 5374 5374 5373 5373 5374 5374 5375 5377 5379 5380 5383 5385 5386 5387 5388 5389 5390 5391 5393 5395 5396 5398 5400 5401 5403 5405 5406 5408 5410 5412
5460 5457 5453 5450 5447 5444 5441 5438 5435 5432 5429 5426 5423 5420 5417 5414 5411 5408 5405 5402 5400 5397 5394 5391 5389 5386 5383 5381 5379 5377 5375 5374 5373 5372 5371 5371 5370 5370 5370 5370 5369 5369 5369 5369 5370 5371 5373 5375 5376 5378 5380 5382 5384 5384 5385 5386 5388 5390 5391 5393 5395 5396 5398 5400 5402 5404 5405 5407 5409
5458 5455 5451 5448 5445 5442 5439 5435 5432 5429 5426 5423 5420 5417 5414 5411 5408 5405 5402 5400 5397 5394 5391 5389 5386 5383 5380 5378 5376 5374 5372 5371 5370 5369 5368 5367 5366 5366 5366 5366 5365 5365 5365 5365 5366 5367 5369 5370 5372 5374 5376 5378 5380 5381 5382 5383 5385 5386 5388 5390 5391 5393 5395 5397 5399 5401 5403 5405 5407
5456 5452 5449 5446 5443 5439 5436 5433 5430 5426 5423 5420 5417 5414 5411 5408 5405 5402 5399 5396 5394 5391 5389 5386 5383 5381 5378 5375 5373 5371 5369 5367 5366 5365 5364 5363 5363 5362 5362 5362 5361 5361 5361 5361 5362 5364 5365 5366 5368 5370 5372 5375 5376 5378 5379 5380 5381 5382 5385 5386 5388 5390 5392 5394 5396 5398 5400 5402 5404
5454 5450 5447 5444 5440 5437 5434 5430 5427 5424 5421 5418 5415 5411 5408 5405 5402 5399 5396 5394 5391 5388 5385 5383 5381 5378 5375 5373 5370 5368 5366 5364 5363 5362 5361 5360 5359 5359 5358 5358 5358 5357 5357 5358 5359 5360 5361 5363 5365 5366 5369 5371 5373 5375 5375 5376 5377 5379 5381 5383 5385 5387 5389 5391 5393 5395 5397 5399 5401
5452 5448 5445 5441 5438 5435 5431 5428 5425 5421 5418 5415 5412 5409 5406 5403 5400 5397 5394 5391 5388 5385 5383 5380 5378 5375 5373 5370 5368 5365 5363 5361 5360 5359 5357 5356 5356 5355 5355 5354 5354 5354 5354 5355 5355 5356 5358 5360 5361 5363 5365 5367 5369 5370 5371 5372 5374 5376 5378 5380 5382 5384 5386 5388 5390 5392 5394 5396 5399
5450 5446 5443 5439 5436 5433 5429 5426 5422 5419 5416 5412 5409 5406 5403 5400 5397 5394 5391 5388 5385 5382 5380 5377 5375 5372 5370 5368 5365 5363 5360 5358 5357 5355 5354 5353 5352 5352 5351 5351 5350 5350 5350 5351 5352 5353 5355 5356 5358 5360 5361 5363 5365 5367 5368 5369 5371 5373 5375 5377 5379 5381 5383 5385 5387 5389 5391 5394 5396
5447 5444 5440 5437 5434 5430 5427 5423 5420 5416 5413 5410 5407 5404 5400 5397 5394 5391 5388 5385 5382 5380 5377 5374 5372 5370 5367 5365 5363 5360 5358 5356 5354 5352 5351 5350 5349 5349 5348 5347 5347 5347 5347 5347 5348 5349 5351 5353 5355 5356 5358 5360 5362 5363 5364 5366 5368 5370 5372 5374 5376 5378 5380 5382 5384 5386 5388 5390 5393
5445 5442 5438 5435 5431 5428 5424 5421 5417 5414 5411 5407 5404 5401 5398 5395 5391 5388 5385 5382 5380 5377 5374 5371 5369 5366 5364 5362 5360 5358 5355 5353 5351 5350 5348 5347 5346 5345 5345 5344 5344 5344 5344 5344 5345 5346 5347 5349 5351 5353 5355 5357 5358 5359 5360 5363 5365 5366 5368 5370 5373 5375 5377 5379 5381 5383 5385 5388 5390
5443 5440 5436 5433 5429 5425 5422 5418 5415 5411 5408 5405 5401 5398 5395 5392 5389 5385 5383 5380 5377 5374 5371 5369 5366 5364 5361 5359 5357 5355 5353 5351 5349 5347 5345 5344 5343 5342 5341 5341 5340 5340 5340 5340 5341 5342 5343 5345 5347 5350 5352 5353 5354 5355 5357 5359 5361 5363 5365 5367 5370 5372 5374 5376 5378 5380 5382 5385 5387
5441 5437 5434 5430 5427 5423 5420 5416 5412 5409 5405 5402 5399 5395 5392 5389 5386 5383 5380 5377 5374 5371 5369 5366 5363 5361 5358 5356 5354 5352 5350 5348 5346 5344 5342 5341 5340 5339 5338 5338 5337 5337 5337 5337 5338 5338 5340 5342 5344 5347 5348 5349 5349 5351 5353 5355 5357 5360 5361 5364 5366 5368 5370 5373 5375 5377 5380 5382 5384
5439 5435 5432 5428 5425 5421 5417 5414 5410 5406 5403 5400 5396 5393 5390 5386 5383 5380 5377 5374 5371 5368 5365 5363 5360 5358 5355 5353 5351 5349 5347 5345 5343 5341 5340 5338 5337 5336 5335 5335 5334 5334 5333 5334 5334 5335 5336 5339 5341 5343 5344 5344 5345 5348 5350 5352 5354 5356 5358 5360 5363 5365 5367 5370 5372 5374 5377 5379 5381
5438 5434 5430 5426 5423 5419 5415 5411 5408 5404 5401 5397 5394 5390 5387 5384 5380 5377 5374 5371 5368 5365 5362 5360 5357 5355 5352 5350 5348 5346 5344 5342 5340 5338 5336 5335 5334 5333 5332 5331 5330 5330 5330 5330 5330 5331 5333 5335 5338 5339 5340 5340 5342 5345 5347 5349 5350 5352 5354 5356 5359 5362 5364 5367 5369 5371 5374 5376 5378
5436 5432 5428 5425 5421 5417 5413 5410 5406 5402 5399 5395 5391 5388 5385 5381 5378 5375 5371 5368 5365 5362 5359 5356 5354 5351 5349 5347 5345 5343 5340 5339 5337 5335 5333 5332 5331 5330 5329 5328 5327 5326 5326 5327 5327 5328 5330 5332 5334 5334 5335 5337 5339 5341 5343 5345 5346 5348 5350 5352 5355 5358 5361 5364 5366 5368 5370 5373 5375
5434 5430 5427 5423 5419 5415 5411 5408 5404 5400 5397 5393 5390 5386 5382 5379 5375 5372 5369 5365 5362 5359 5356 5353 5350 5348 5345 5343 5341 5339 5337 5335 5333 5332 5330 5329 5328 5327 5326 5325 5324 5323 5323 5324 5324 5325 5327 5329 5330 5330 5331 5334 5336 5338 5340 5341 5343 5345 5346 5349 5352 5355 5359 5361 5363 5365 5367 5370 5372
5433 5429 5425 5421 5417 5414 5410 5406 5402 5399 5395 5391 5387 5384 5380 5376 5373 5370 5366 5363 5359 5356 5353 5350 5346 5344 5341 5339 5337 5335 5333 5331 5330 5328 5327 5325 5324 5324 5323 5321 5320 5320 5320 5320 5321 5322 5324 5326 5326 5327 5328 5331 5333 5335 5336 5338 5340 5341 5343 5345 5349 5353 5356 5358 5360 5362 5364 5366 5368
5431 5427 5423 5420 5416 5412 5408 5404 5400 5397 5393 5389 5385 5382 5378 5374 5371 5367 5363 5360 5356 5353 5349 5346 5342 5340 5337 5334 5332 5330 5329 5327 5325 5324 5323 5322 5321 5320 5320 5318 5317 5316 5316 5317 5318 5319 5321 5324 5324 5323 5325 5328 5330 5331 5333 5335 5336 5337 5340 5342 5346 5350 5353 5355 5356 5358 5360 5362 5365
5430 5425 5422 5418 5414 5410 5406 5402 5399 5395 5391 5387 5383 5380 5376 5372 5368 5364 5360 5356 5353 5349 5345 5341 5338 5335 5332 5329 5327 5325 5324 5322 5321 5320 5319 5318 5317 5317 5316 5315 5314 5313 5313 5314 5315 5316 5318 5320 5320 5320 5321 5324 5326 5328 5330 5331 5333 5334 5336 5340 5344 5347 5349 5351 5353 5355 5356 5359 5361
5428 5424 5420 5416 5412 5409 5405 5401 5397 5393 5389 5385 5381 5377 5373 5369 5365 5361 5357 5353 5349 5345 5340 5337 5333 5330 5327 5324 5322 5320 5319 5318 5316 5315 5315 5314 5313 5313 5313 5312 5310 5310 5310 5311 5312 5313 5315 5316 5316 5316 5318 5320 5322 5325 5326 5328 5330 5331 5334 5337 5340 5343 5345 5347 5350 5351 5352 5355 5357
5427 5423 5419 5415 5411 5407 5403 5399 5395 5391 5387 5383 5379 5375 5371 5366 5362 5358 5354 5349 5345 5340 5336 5331 5328 5324 5321 5318 5316 5315 5313 5312 5312 5311 5310 5310 5309 5309 5309 5309 5307 5307 5307 5308 5309 5310 5312 5313 5313 5313 5315 5317 5319 5321 5323 5325 5327 5329 5331 5334 5337 5340 5342 5344 5346 5348 5350 5351 5354
5425 5421 5417 5413 5409 5405 5401 5397 5393 5389 5385 5381 5377 5372 5368 5363 5359 5354 5350 5345 5340 5336 5331 5326 5322 5318 5315 5312 5310 5308 5307 5307 5307 5306 5305 5305 5305 5305 5305 5305 5305 5304 5304 5305 5306 5307 5309 5310 5309 5309 5311 5314 5316 5319 5320 5322 5324 5326 5329 5331 5334 5336 5338 5340 5342 5345 5347 5348 5350
5424 5420 5416 5412 5408 5404 5400 5395 5391 5387 5383 5379 5374 5370 5365 5360 5355 5351 5346 5341 5336 5331 5326 5321 5316 5312 5308 5305 5303 5302 5302 5302 5302 5301 5301 5301 5301 5302 5302 5302 5301 5301 5301 5302 5303 5305 5306 5307 5305 5306 5309 5311 5314 5316 5318 5320 5322 5324 5326 5328 5330 5333 5335 5336 5338 5341 5343 5346 5347
5422 5418 5415 5410 5406 5402 5398 5394 5390 5385 5381 5376 5372 5367 5362 5357 5352 5347 5342 5337 5331 5326 5320 5315 5310 5306 5302 5300 5298 5297 5296 5296 5297 5297 5297 5297 5298 5298 5299 5299 5299 5298 5298 5299 5300 5301 5303 5304 5303 5304 5306 5308 5311 5314 5316 5317 5319 5321 5323 5325 5327 5330 5331 5333 5334 5336 5340 5343 5345
5421 5417 5413 5409 5405 5401 5397 5392 5388 5384 5379 5374 5369 5364 5359 5354 5349 5343 5338 5332 5326 5321 5315 5309 5304 5300 5296 5294 5292 5291 5291 5292 5292 5293 5293 5294 5294 5295 5295 5295 5295 5295 5296 5296 5297 5298 5300 5300 5300 5301 5304 5306 5309 5311 5313 5314 5316 5318 5320 5322 5324 5326 5328 5329 5330 5333 5336 5340 5342
5420 5416 5412 5408 5404 5400 5395 5391 5386 5381 5376 5372 5366 5361 5356 5351 5345 5340 5334 5328 5321 5315 5309 5304 5299 5294 5291 5289 5287 5287 5287 5288 5288 5289 5290 5290 5291 5292 5292 5293 5293 5293 5293 5294 5294 5295 5297 5297 5298 5300 5301 5304 5305 5308 5309 5311 5312 5314 5316 5318 5320 5322 5324 5325 5326 5329 5332 5335 5338
5419 5415 5411 5407 5403 5399 5394 5389 5384 5379 5374 5369 5364 5359 5353 5348 5342 5336 5330 5323 5316 5310 5304 5298 5294 5290 5286 5285 5284 5283 5284 5284 5285 5286 5287 5287 5288 5289 5290 5290 5290 5290 5291 5291 5291 5293 5294 5294 5296 5298 5299 5301 5303 5305 5306 5307 5309 5310 5312 5314 5316 5318 5320 5321 5323 5325 5329 5333 5336
5419 5415 5410 5406 5402 5397 5393 5388 5383 5377 5372 5367 5362 5356 5351 5345 5339 5333 5326 5319 5312 5305 5299 5294 5289 5286 5283 5282 5281 5280 5281 5281 5282 5283 5284 5285 5286 5287 5287 5288 5288 5289 5289 5289 5289 5290 5291 5292 5294 5295 5297 5298 5300 5302 5303 5305 5306 5307 5309 5310 5312 5315 5316 5318 5320 5324 5328 5332 5335